Regional Weather Roundup
Issued by NWS Kansas City/Pleasant Hill, MO

Home | Current Version | Previous Version | Graphics & Text | Print | Product List | Glossary Off
Versions: 1 2 3 4 5 6 7 8 9 10 11 12 13 14 15 16 17 18 19 20 21 22 23 24 25 26 27

000
ASUS43 KEAX 241710
RWREAX

WEATHER ROUNDUP FOR EASTERN KANSAS AND NORTHWEST MISSOURI
NATIONAL WEATHER SERVICE KANSAS CITY/PLEASANT HILL MO
1200 PM CDT WED MAY 24 2017

KSZ040-057-103>105-MOZ028-029-037-043-241800-
...KANSAS CITY METROPOLITAN AREA...

CITY           SKY/WX    TMP DP  RH WIND       PRES   REMARKS
K.C. INTL      PTSUNNY   60  48  64 N17G25    29.70F
K.C. DOWNTOWN  CLOUDY    61  51  70 NW8       29.69F
LEES SUMMIT    LGT RAIN  56  51  84 NW13      29.70S
OLATHE - IXD   CLOUDY    59  49  69 N16G23    29.71F
OLATHE - OJC   CLOUDY    58  49  72 N15       29.70F
LAWRENCE       PTSUNNY   62  50  64 NW15G24   29.71F

$$

MOZ001>008-011>017-020>025-030>033-038>040-044>046-053-054-241800-
...NORTHERN AND CENTRAL MISSOURI...

CITY           SKY/WX    TMP DP  RH WIND       PRES   REMARKS
ST. JOSEPH     PTSUNNY   61  50  67 N17       29.71S
MOSBY          RAIN      54  52  94 N6        29.69F
WARRENSBURG    CLOUDY    57  50  77 NW10      29.68S
WHITEMAN AFB   LGT RAIN  57  54  88 NW10      29.66F FOG
CLINTON        CLOUDY    54  50  87 NW9       29.69S
SEDALIA        CLOUDY    59  53  80 NW13G18   29.67S
WARSAW         NOT AVBL
CHILLICOTHE      N/A     62  50  64 N7        29.67S
KIRKSVILLE     FAIR      63  50  62 N10G18    29.64F

$$

MOZ041-047>049-056>058-063>065-088>090-097-241800-
...EASTERN AND SOUTHERN MISSOURI...

CITY           SKY/WX    TMP DP  RH WIND       PRES   REMARKS
ST. LOUIS INTL PTSUNNY   65  48  54 NW14      29.58S
SPIRIT OF STL  PTSUNNY   66  50  56 NW15      29.58S
COLUMBIA       PTSUNNY   59  48  67 NW13      29.64S
JEFFERSON CITY FAIR      62  48  60 NW15      29.63S
ROLLA          CLOUDY    58  48  69 W14       29.61F
OSAGE BEACH    LGT RAIN  53  49  86 W6        29.66S
SPRINGFIELD    CLOUDY    56  45  66 NW12      29.68S
BRANSON        PTSUNNY   59  45  58 NW13G21   29.69F
JOPLIN         PTSUNNY   62  47  57 NW15      29.72F
WEST PLAINS    CLOUDY    59  46  62 NW15G21   29.64S

$$

IAZ060-094-KSZ022-034>040-054-083-096-NEZ052-066-093-241800-
...KANSAS...SOUTHEAST NEBRASKA AND IOWA...

CITY           SKY/WX    TMP DP  RH WIND       PRES   REMARKS
TOPEKA         FAIR      64  50  60 NW16G24   29.72F
MANHATTAN      FAIR      64  48  56 N8        29.76F
EMPORIA        PTSUNNY   62  46  55 N14G21    29.75F
CHANUTE        PTSUNNY   62  47  57 NW14G23   29.73F
WICHITA        PTSUNNY   60  43  53 NW14      29.80F
OMAHA          FAIR      63  48  58 N13       29.74F
LINCOLN        FAIR      63  47  55 N13G18    29.77S
FALLS CITY     PTSUNNY   61  47  59 N15G22    29.72S
LAMONI         CLOUDY    58  51  78 N15       29.68S
DES MOINES     CLOUDY    56  50  80 N10       29.69S

$$





USA.gov is the U.S. government's official web portal to all federal, state and local government web resources and services.